Location: Asheville, NC
(35.6000°N, 82.5500°W)
Time: 01:25:56
(UTC-05:00)

Vanguard 1 Rocket - Pass Details

Date: 16 February 2018
Orbit: 655 x 4222 km, 34.3° (Epoch: 23 February)

Event Time Altitude Azimuth Distance (km) Brightness Sun altitude
Rises 20:48:02 0° 193° (SSW) 5,982 11.6 -32.0°
Reaches altitude 10° 20:52:23 10° 181° (S) 5,465 11.3 -32.9°
Enters shadow 21:01:29 26° 149° (SSE) 5,083 10.8 -34.7°
Maximum altitude 21:06:38 29° 129° (SE) 5,281 - -35.8°
Drops below altitude 10° 21:25:42 10° 81° (E) 7,423 - -39.5°
Sets 21:32:54 0° 72° (ENE) 8,425 - -40.9°
